Header for Extended Forecast Station List Page

Search by: ID | Name | Date | Parm | Value | Avg | % Avg
Sort by: ID | Name | Date | Parm | Value | Avg | % Avg

Enter search or view all records.

Click on id for station plot
#IDNameDateParmValueAvg% Avg
0HWRI1BIG LOST-AT HOWELL RANCH NEAR CHILLY08-22-2016DISCHARGE (KAF)212875
1MACI1BIG LOST-MACKAY RESERVOIR NEAR MACKAY08-22-2016INFLOW (KAF)3414237
2HALI1BIG WOOD-AT HAILEY08-22-2016DISCHARGE (KAF)404686
3MAGI1BIG WOOD-MAGIC DAM08-22-2016INFLOW (KAF)212877
4BITM8BITTERROOT-NEAR MISSOULA08-22-2016DISCHARGE (KAF)17323175
5BONM8BLACKFOOT-NEAR BONNER08-22-2016DISCHARGE (KAF)10115366
6BIGI1BOISE-AT GLENWOOD BRIDGE08-22-2016DISCHARGE (KAF)10686123
7LUCI1BOISE-LUCKY PEAK DAM08-22-2016INFLOW (KAF)243MM
8PARI1BOISE-NEAR PARMA08-22-2016DISCHARGE (KAF)22322699
9HOTI1BRUNEAU-NEAR HOT SPRINGS08-22-2016DISCHARGE (KAF)2322104
10BULO3BULLY CREEK-BULLY CREEK DAM08-22-2016INFLOW (KAF)0162
11BUDW1BUMPING-BUMPING LAKE DAM08-22-2016INFLOW (KAF)212680
12CHDW1CHELAN-LAKE CHELAN DAM08-22-2016INFLOW (KAF)13317178
13ABOM8CLARK FORK-ABOVE MISSOULA08-22-2016DISCHARGE (KAF)24336766
14DLGM8CLARK FORK-AT DEER LODGE08-22-2016DISCHARGE (KAF)385767
15SRGM8CLARK FORK-AT ST REGIS08-22-2016DISCHARGE (KAF)52578367
16BELM8CLARK FORK-BELOW MISSOULA08-22-2016DISCHARGE (KAF)41660469
17CABI1CLARK FORK-CABINET GORGE DAM08-22-2016INFLOW (KAF)2436320876
18NOXM8CLARK FORK-NOXON RAPIDS DAM08-22-2016INFLOW (KAF)2218305973
19DRMM8CLARK FORK-NR DRUMMOND08-22-2016DISCHARGE (KAF)94MM
20CLUW1CLE ELUM-CLE ELUM LAKE08-22-2016INFLOW (KAF)648079
21ORFI1CLEARWATER-AT OROFINO08-22-2016DISCHARGE (KAF)32851664
22SPDI1CLEARWATER-AT SPALDING08-22-2016DISCHARGE (KAF)1020121384
23COEI1COEUR D ALENE-COEUR D ALENE LAKE08-22-2016INFLOW (KAF)22333966
24CIBW1COLUMBIA-AT INTL BOUNDARY08-22-2016DISCHARGE (KAF)18277MM
25BONO3COLUMBIA-BONNEVILLE DAM08-22-2016INFLOW (KAF)25831MM
26CHJW1COLUMBIA-CHIEF JOSEPH DAM08-22-2016INFLOW (KAF)180291906295
27GCDW1COLUMBIA-GRAND COULEE DAM08-22-2016INFLOW (KAF)1894117809106
28JDAO3COLUMBIA-JOHN DAY DAM08-22-2016INFLOW (KAF)246272706791
29MCDW1COLUMBIA-MCNARY DAM08-22-2016INFLOW (KAF)240222650691
30PRWW1COLUMBIA-PRIEST RAPIDS DAM08-22-2016INFLOW (KAF)188691911599
31RRHW1COLUMBIA-ROCKY REACH DAM08-22-2016INFLOW (KAF)186201984494
32TDAO3COLUMBIA-THE DALLES DAM08-22-2016INFLOW (KAF)252982881988
33WANW1COLUMBIA-WANAPUM DAM08-22-2016INFLOW (KAF)1886518845100
34WELW1COLUMBIA-WELLS DAM08-22-2016INFLOW (KAF)183281937795
35DEDI1DEADWOOD-NEAR LOWMAN08-22-2016INFLOW (KAF)161890
36MODO3DESCHUTES-AT MOODY NR BIGGS08-22-2016DISCHARGE (KAF)1110117594
37ARDW1ENTIAT-NEAR ARDENVOIR08-22-2016DISCHARGE (KAF)212388
38CHEI1FALL RIVER-NEAR CHESTER08-22-2016DISCHARGE (KAF)909892
39CFMM8FLATHEAD-AT COLUMBIA FALLS08-22-2016DISCHARGE (KAF)919115779
40KERM8FLATHEAD-KERR DAM08-22-2016INFLOW (KAF)1012139972
41TRYO3GRANDE RONDE-TROY08-22-2016DISCHARGE (KAF)12421757
42REXI1HENRYS FORK-AT REXBURG08-22-2016DISCHARGE (KAF)33140382
43ANTI1HENRYS FORK-AT ST. ANTHONY08-22-2016DISCHARGE (KAF)25932580
44IPDI1HENRYS FORK-ISLAND PARK DAM08-22-2016INFLOW (KAF)12813198
45HODO3HOOD-NEAR TUCKER BRIDGE08-22-2016DISCHARGE (KAF)143137105
46SERO3JOHN DAY-AT SERVICE CK08-22-2016DISCHARGE (KAF)558862
47KADW1KACHESS-KACHESS DAM08-22-2016INFLOW (KAF)2927106
48LAUW1KETTLE-AT LAURIER08-22-2016DISCHARGE (KAF)9212872
49PITW1KLICKITAT-NEAR PITT08-22-2016DISCHARGE (KAF)198198100
50BFEI1KOOTENAI-AT BONNERS FERRY08-22-2016STAGE (FT)MMM
51LEOI1KOOTENAI-AT LEONIA08-22-2016DISCHARGE (KAF)23921868128
52LYDM8KOOTENAI-LIBBY DAM08-22-2016INFLOW (KAF)1109125488
53LWRI1LITTLE WOOD-LITTLE WOOD DAM08-22-2016INFLOW (KAF)151599
54BERO3MALHEUR-AGENCY VALLEY DAM08-22-2016INFLOW (KAF)91086
55VALO3MALHEUR-NEAR VALE08-22-2016DISCHARGE (KAF)212775
56WRMO3MALHEUR-WARM SPRINGS DAM08-22-2016INFLOW (KAF)7889
57MYKO3MCKAY CREEK-NEAR PILOT ROCK08-22-2016DISCHARGE (KAF)54109
58PATW1METHOW-NEAR PATEROS08-22-2016DISCHARGE (KAF)8910485
59WGCM8MF FLATHEAD-NEAR WEST GLACIER08-22-2016DISCHARGE (KAF)14319872
60CLFW1NACHES-NEAR CLIFFDEL08-22-2016DISCHARGE (KAF)668182
61NACW1NACHES-NEAR NACHES08-22-2016DISCHARGE (KAF)21087243
62DWRI1NF CLEARWATER-DWORSHAK DAM08-22-2016INFLOW (KAF)29438676
63FCFM8NF FLATHEAD-NEAR COLUMBIA FALLS08-22-2016DISCHARGE (KAF)21923992
64MONO3NF JOHN DAY-AT MONUMENT08-22-2016DISCHARGE (KAF)304666
65CSDI1NF PAYETTE-CASCADE DAM08-22-2016INFLOW (KAF)8179103
66TONW1OKANOGAN-NEAR TONASKET08-22-2016DISCHARGE (KAF)21028075
67OWYO3OWYHEE-OWYHEE DAM08-22-2016INFLOW (KAF)6258108
68EMMI1PAYETTE-NEAR EMMETT08-22-2016DISCHARGE (KAF)27137073
69ALFW1PEND OREILLE-ALBENI FALLS DAM08-22-2016INFLOW (KAF)2575361371
70HOPI1PEND OREILLE-PEND OREILLE LAKE NR HOPE08-22-2016LAKE ELEVATION (FT)MMM
71PIHI1PORTNEUF-AT POCATELLO08-22-2016DISCHARGE (KAF)334376
72PRTI1PRIEST-NEAR PRIEST RIVER08-22-2016DISCHARGE (KAF)9019347
73RCCM8ROCK CREEK-NEAR CLINTON08-22-2016DISCHARGE (KAF)425872
74WHBI1SALMON-AT WHITEBIRD08-22-2016DISCHARGE (KAF)921112282
75ARAI1SF BOISE-ANDERSON RANCH DAM08-22-2016INFLOW (KAF)676899
76HHWM8SF FLATHEAD-HUNGRY HORSE DAM08-22-2016INFLOW (KAF)16323469
77PLDI1SF SNAKE-PALISADES DAM08-22-2016INFLOW (KAF)86192893
78SIFI1SNAKE-AB EAGLE ROCK NR IDAHO FALLS08-22-2016DISCHARGE (KAF)1187960124
79AFRI1SNAKE-AMERICAN FALLS RESERVOIR08-22-2016INFLOW (KAF)15241316116
80SNAI1SNAKE-AT BLACKFOOT08-22-2016DISCHARGE (KAF)894616145
81MILI1SNAKE-AT MILNER08-22-2016DISCHARGE (KAF)7526229
82WEII1SNAKE-AT WEISER08-22-2016DISCHARGE (KAF)2542330777
83SWAI1SNAKE-BELOW SWAN FALLS08-22-2016DISCHARGE (KAF)1778228578
84BRNI1SNAKE-BROWNLEE DAM08-22-2016INFLOW (KAF)2710337680
85IHDW1SNAKE-ICE HARBOR DAM08-22-2016INFLOW (KAF)4420624371
86JLKW4SNAKE-JACKSON LAKE AT DAM08-22-2016INFLOW (KAF)8712172
87LGSW1SNAKE-LITTLE GOOSE DAM08-22-2016INFLOW (KAF)4417630970
88LGDW1SNAKE-LOWER GRANITE DAM08-22-2016INFLOW (KAF)4448627571
89LMNW1SNAKE-LOWER MONUMENTAL DAM08-22-2016INFLOW (KAF)4406632270
90ALPW4SNAKE-NEAR ALPINE08-22-2016DISCHARGE (KAF)62063598
91ANAW1SNAKE-NEAR ANATONE08-22-2016DISCHARGE (KAF)3428493469
92BFTI1SNAKE-NEAR BLACKFOOT08-22-2016DISCHARGE (KAF)910647141
93HEII1SNAKE-NEAR HEISE08-22-2016DISCHARGE (KAF)13061066123
94JKSW4SNAKE-NEAR JACKSON08-22-2016DISCHARGE (KAF)577528109
95SHYI1SNAKE-NEAR SHELLEY08-22-2016DISCHARGE (KAF)1147831138
96LLKW1SPOKANE-AT LONGLAKE08-22-2016INFLOW (KAF)57774478
97SPOW1SPOKANE-AT SPOKANE08-22-2016DISCHARGE (KAF)422MM
98SJMI1ST JOE-AT ST MARIES08-22-2016STAGE (FT)MMM
99SATI1ST MARIES-NEAR SANTA08-22-2016DISCHARGE (KAF)142069
100STRM8ST. REGIS-NEAR ST. REGIS08-22-2016DISCHARGE (KAF)203162
101TNAW1TEANAWAY-BELOW FORKS08-22-2016DISCHARGE (KAF)101760
102TEAI1TETON-NEAR ST. ANTHONY08-22-2016DISCHARGE (KAF)11413684
103RILW1TIETON-RIMROCK LAKE NEAR RIMROCK08-22-2016INFLOW (KAF)6161100
104PDTO3UMATILLA-AT PENDLETON08-22-2016DISCHARGE (KAF)202970
105GIBO3UMATILLA-NEAR GIBBON08-22-2016DISCHARGE (KAF)141880
106UMAO3UMATILLA-NEAR UMATILLA08-22-2016DISCHARGE (KAF)4928175
107TCHW1WALLA WALLA-NEAR TOUCHET08-22-2016DISCHARGE (KAF)283679
108WSRI1WEISER-NEAR WEISER08-22-2016DISCHARGE (KAF)435085
109PESW1WENATCHEE-AT PESHASTIN08-22-2016DISCHARGE (KAF)23124993
110UNDW1WHITE SALMON-NEAR UNDERWOOD08-22-2016DISCHARGE (KAF)193168115
111RIDI1WILLOW CREEK-RIRIE DAM08-22-2016INFLOW (KAF)4761
112EASW1YAKIMA-AT EASTON08-22-2016DISCHARGE (KAF)10761176
113KIOW1YAKIMA-AT KIONA08-22-2016DISCHARGE (KAF)719539133
114UMTW1YAKIMA-AT UMTANUM08-22-2016DISCHARGE (KAF)401364110
115KEDW1YAKIMA-KEECHELUS LAKE08-22-2016INFLOW (KAF)4538119
116PARW1YAKIMA-NEAR PARKER08-22-2016DISCHARGE (KAF)460252182